EW2693 Weather Reports


time (UTC)temp
C
wind
direction
speed
KPH
gust
KPH
rain 1hr
cm
rain 24hr
cm
rain mn
cm
humidity
%
barometer
mb
20260906073003 26 296 1.6 6.4 0.00 0.00 0.00 67 1021.4
20260906071959 26 67 1.6 4.8 0.00 0.00 0.00 66 1021.4
20260906070959 26 75 1.6 6.4 0.00 0.00 0.00 65 1021.2
20260906070005 26 294 1.6 11.3 0.00 0.00 0.00 65 1021.3
20260906064002 25 295 0.0 4.8 0.00 0.00 0.00 66 1021.0
20260906063002 25 295 0.0 4.8 0.00 0.00 0.00 66 1021.0
20260906062003 24 294 0.0 3.2 0.00 0.00 0.00 66 1021.0
20260906060959 23 294 0.0 1.6 0.00 0.00 0.00 67 1020.9
20260906060002 23 294 0.0 1.6 0.00 0.00 0.00 66 1020.8
20260906054959 23 294 0.0 1.6 0.00 0.00 0.00 66 1020.6
20260906054000 23 294 0.0 1.6 0.00 0.00 0.00 66 1020.4
20260906053000 23 294 0.0 1.6 0.00 0.00 0.00 66 1020.3
20260906052003 23 294 0.0 0.0 0.00 0.00 0.00 66 1020.4
20260906050004 23 294 0.0 0.0 0.00 0.00 0.00 65 1020.2
20260906044959 23 294 0.0 0.0 0.00 0.00 0.00 66 1020.2
20260906044000 23 294 0.0 3.2 0.00 0.00 0.00 66 1020.1
20260906042959 23 293 0.0 1.6 0.00 0.00 0.00 66 1020.0
20260906041959 23 294 0.0 3.2 0.00 0.00 0.00 66 1019.9
20260906040008 22 294 0.0 1.6 0.00 0.00 0.00 67 1019.8
20260906034959 22 294 0.0 1.6 0.00 0.00 0.00 67 1019.6
20260906033959 22 294 0.0 1.6 0.00 0.00 0.00 67 1019.7
20260906033000 22 294 1.6 4.8 0.00 0.00 0.00 66 1019.6
20260906031959 22 180 0.0 1.6 0.00 0.00 0.00 67 1019.4
20260906031000 23 180 0.0 3.2 0.00 0.00 0.00 67 1019.3
20260906030005 23 180 0.0 1.6 0.00 0.00 0.00 67 1019.3
20260906024959 23 180 0.0 3.2 0.00 0.00 0.00 67 1019.3
20260906023000 23 180 0.0 3.2 0.00 0.00 0.00 66 1019.4
20260906021959 23 180 0.0 1.6 0.00 0.00 0.00 65 1018.9
20260906020959 23 180 0.0 1.6 0.00 0.00 0.00 65 1018.7
20260906020005 23 180 0.0 3.2 0.00 0.00 0.00 65 1018.7
20260906015000 23 180 0.0 1.6 0.00 0.00 0.00 64 1018.7
20260906013959 23 180 0.0 1.6 0.00 0.00 0.00 64 1018.7
20260906013000 23 180 0.0 3.2 0.00 0.00 0.00 64 1018.7
20260906011959 23 180 0.0 1.6 0.00 0.00 0.00 64 1018.6
20260906011000 23 180 0.0 0.0 0.00 0.00 0.00 64 1018.6
20260906010004 23 180 0.0 0.0 0.00 0.00 0.00 64 1018.6
20260906005001 23 180 0.0 0.0 0.00 0.00 0.00 64 1018.6
20260906003958 23 180 0.0 0.0 0.00 0.00 0.00 65 1018.6
20260906002958 23 180 0.0 3.2 0.00 0.00 0.00 64 1018.6
20260906002001 23 180 0.0 3.2 0.00 0.00 0.00 64 1018.5
20260906000959 23 180 0.0 3.2 0.00 0.00 0.00 63 1018.6
20260906000001 24 180 0.0 0.0 0.00 0.00 0.00 62 1018.6
20260905234959 24 180 0.0 1.6 0.00 0.00 0.00 61 1018.5
20260905233958 24 180 0.0 1.6 0.00 0.00 0.00 61 1018.4
20260905233000 24 180 0.0 0.0 0.00 0.00 0.00 63 1018.5
20260905230959 25 180 0.0 0.0 0.00 0.00 0.00 62 1018.5
20260905230004 25 180 0.0 0.0 0.00 0.00 0.00 60 1018.4
20260905225002 25 180 0.0 0.0 0.00 0.00 0.00 62 1018.4
20260905223001 25 180 0.0 0.0 0.00 0.00 0.00 62 1018.4
20260905222001 25 180 0.0 0.0 0.00 0.00 0.00 61 1018.4
20260905221002 25 180 1.6 3.2 0.00 0.00 0.00 60 1018.3
20260905220009 26 180 0.0 1.6 0.00 0.00 0.00 59 1018.3
20260905215003 26 180 0.0 0.0 0.00 0.00 0.00 57 1018.1
20260905213003 26 180 0.0 1.6 0.00 0.00 0.00 57 1018.1
20260905212004 26 180 0.0 1.6 0.00 0.00 0.00 57 1018.0
20260905211001 26 180 0.0 3.2 0.00 0.00 0.00 58 1018.0
20260905210004 26 180 0.0 0.0 0.00 0.00 0.00 62 1017.9
20260905205001 27 180 0.0 0.0 0.00 0.00 0.00 63 1017.8
20260905204002 27 180 0.0 0.0 0.00 0.00 0.00 62 1017.9
20260905203004 27 180 0.0 0.0 0.00 0.00 0.00 61 1017.9
20260905202004 27 180 0.0 0.0 0.00 0.00 0.00 60 1017.9
20260905201002 27 180 0.0 0.0 0.00 0.00 0.00 59 1017.8
20260905200004 27 180 0.0 0.0 0.00 0.00 0.00 59 1017.7
20260905195002 28 180 0.0 0.0 0.00 0.00 0.00 58 1017.7
20260905193007 28 180 1.6 6.4 0.00 0.00 0.00 58 1017.6
20260905192006 28 180 1.6 3.2 0.00 0.00 0.00 58 1017.5
20260905191002 28 180 3.2 6.4 0.00 0.00 0.00 57 1017.3
20260905190004 28 180 1.6 4.8 0.00 0.00 0.00 56 1017.2
20260905185002 28 180 3.2 6.4 0.00 0.00 0.00 56 1017.1
20260905184001 28 180 1.6 4.8 0.00 0.00 0.00 58 1017.0
20260905183003 28 180 1.6 4.8 0.00 0.00 0.00 59 1017.0
20260905182004 28 132 1.6 4.8 0.00 0.00 0.00 60 1016.9
20260905181002 29 61 1.6 4.8 0.00 0.00 0.00 58 1016.8
20260905180004 29 61 1.6 4.8 0.00 0.00 0.00 57 1016.8
20260905175002 29 148 1.6 3.2 0.00 0.00 0.00 55 1016.7
20260905174001 30 148 0.0 4.8 0.00 0.00 0.00 52 1016.6
20260905173004 30 149 1.6 3.2 0.00 0.00 0.00 52 1016.6
20260905172004 30 152 1.6 8.0 0.00 0.00 0.00 52 1016.3
20260905171001 30 58 1.6 6.4 0.00 0.00 0.00 51 1016.2
20260905170002 30 14 1.6 8.0 0.00 0.00 0.00 51 1016.2
20260905165003 30 277 1.6 4.8 0.00 0.00 0.00 50 1016.1
20260905164000 30 18 3.2 8.0 0.00 0.00 0.00 48 1016.2
20260905162003 30 34 4.8 12.9 0.00 0.00 0.00 51 1016.1
20260905161002 30 27 3.2 9.7 0.00 0.00 0.00 45 1016.1
20260905160004 31 28 4.8 12.9 0.00 0.00 0.00 45 1016.1
20260905155001 31 162 3.2 12.9 0.00 0.00 0.00 41 1016.0
20260905154002 31 33 1.6 8.0 0.00 0.00 0.00 41 1015.9
20260905153001 31 29 4.8 9.7 0.00 0.00 0.00 42 1016.0
20260905152002 31 29 4.8 9.7 0.00 0.00 0.00 40 1016.0
20260905150007 31 220 3.2 12.9 0.00 0.00 0.00 48 1016.0
20260905145003 31 30 4.8 12.9 0.00 0.00 0.00 45 1015.9
20260905143004 31 15 4.8 14.5 0.00 0.00 0.00 45 1015.9
20260905142004 32 27 3.2 12.9 0.00 0.00 0.00 46 1016.0
20260905141001 32 15 4.8 12.9 0.00 0.00 0.00 42 1016.1
20260905140003 32 9 4.8 9.7 0.00 0.00 0.00 45 1016.3
20260905135000 32 130 4.8 9.7 0.00 0.00 0.00 46 1016.3
20260905134000 32 5 4.8 8.0 0.00 0.00 0.00 44 1016.5
20260905133004 32 17 3.2 8.0 0.00 0.00 0.00 40 1016.6
20260905132004 32 319 4.8 12.9 0.00 0.00 0.00 40 1016.6
20260905125000 32 299 4.8 9.7 0.00 0.00 0.00 37 1016.6
20260905124000 32 317 4.8 9.7 0.00 0.00 0.00 38 1016.7
20260905123002 32 22 4.8 9.7 0.00 0.00 0.00 39 1016.8
20260905121000 32 72 4.8 9.7 0.00 0.00 0.00 43 1016.9
20260905120003 32 19 3.2 8.0 0.00 0.00 0.00 42 1017.0
20260905115001 32 31 3.2 9.7 0.00 0.00 0.00 41 1017.1
20260905114000 32 226 3.2 12.9 0.00 0.00 0.00 45 1017.1
20260905113003 32 244 3.2 9.7 0.00 0.00 0.00 41 1017.2
20260905112004 31 22 4.8 9.7 0.00 0.00 0.00 40 1017.3
20260905111000 31 31 3.2 8.0 0.00 0.00 0.00 41 1017.0
20260905110004 31 25 4.8 9.7 0.00 0.00 0.00 44 1017.1
20260905105000 32 19 3.2 9.7 0.00 0.00 0.00 43 1017.3
20260905104003 32 30 1.6 12.9 0.00 0.00 0.00 38 1017.1
20260905103004 31 44 3.2 6.4 0.00 0.00 0.00 41 1017.3
20260905102000 32 13 1.6 8.0 0.00 0.00 0.00 40 1017.3
20260905101000 32 154 3.2 8.0 0.00 0.00 0.00 36 1017.5
20260905100003 31 159 1.6 12.9 0.00 0.00 0.00 36 1017.3
20260905095000 31 284 1.6 6.4 0.00 0.00 0.00 36 1017.4
20260905094002 31 58 3.2 14.5 0.00 0.00 0.00 33 1017.1
20260905093002 32 61 1.6 9.7 0.00 0.00 0.00 32 1017.3
20260905092000 32 73 1.6 4.8 0.00 0.00 0.00 35 1017.1
20260905091002 31 11 1.6 6.4 0.00 0.00 0.00 39 1017.1
20260905090004 31 174 1.6 6.4 0.00 0.00 0.00 42 1017.0
20260905085000 31 161 1.6 3.2 0.00 0.00 0.00 42 1016.9
20260905084000 30 69 1.6 4.8 0.00 0.00 0.00 42 1016.7
20260905083001 30 69 1.6 6.4 0.00 0.00 0.00 45 1016.8
20260905081002 30 159 0.0 3.2 0.00 0.00 0.00 43 1016.7
20260905074959 28 159 0.0 0.0 0.00 0.00 0.00 43 1016.3
20260905074000 28 159 0.0 0.0 0.00 0.00 0.00 44 1016.3